Hondo, TX

5:37 AM CST on December 13, 2019 (GMT -0600)
Hondo Municipal

Weather History for KHDO - October, 2019

Change the Weather History Date:

Friday, October 4, 2019

  Actual Average Record
Temperature  
Mean Temperature 80 °F -  
Max Temperature 93 °F 82 °F 95 °F (2013)
Min Temperature 66 °F 60 °F 51 °F (2011)
Cooling Degree Days 14    
Growing Degree Days 30 (Base 50)    
Moisture  
Dew Point 64 °F    
Average Humidity 66    
Maximum Humidity 93    
Minimum Humidity 33    
Precipitation  
Precipitation 0.00 in - - ()
Sea Level Pressure  
Sea Level Pressure 30.02 in    
Wind  
Wind Speed 5 mph (ENE)    
Max Wind Speed 13 mph    
Max Gust Speed -    
Visibility 10 miles    
Events      
Averages and records for this station are not official NWS values.
T = Trace of Precipitation, MM = Missing Value Source: NWS Daily Summary

Daily Weather History Graph

Daily Weather History Graph

Search for Another Location

Airport or City:

Astronomy

Oct. 04, 2019 Rise Set
Actual Time 7:31 AM CDT 7:18 PM CDT
Civil Twilight 7:07 AM CDT 7:42 PM CDT
Nautical Twilight 6:40 AM CDT 8:10 PM CDT
Astronomical Twilight 6:12 AM CDT 8:37 PM CDT
Moon 1:40 PM CDT (10/4) No Moon Set
Length of Visible Light 12h 34m
Length of Day
11h 47m
Waxing Crescent, 40% of the Moon is Illuminated
Oct 4
Waxing Crescent
Oct 5
First Quarter
Oct 13
Full
Oct 21
Last Quarter
Oct 27
New

Hourly Weather History & Observations

Time (CDT) Temp. Heat Index Dew Point Humidity Pressure Visibility Wind Dir Wind Speed Gust Speed Precip Events Conditions
12:51 AM 73.0 °F - 66.0 °F 79% 30.03 in 10.0 mi Calm Calm - N/A   Clear
1:51 AM 71.1 °F - 64.0 °F 78% 30.04 in 10.0 mi East 3.5 mph - N/A   Clear
2:51 AM 71.1 °F - 64.9 °F 81% 30.04 in 10.0 mi Calm Calm - N/A   Clear
3:51 AM 68.0 °F - 64.0 °F 87% 30.03 in 10.0 mi NNW 5.8 mph - N/A   Clear
4:41 AM 69.1 °F - 64.9 °F 87% 30.06 in 10.0 mi NNE 4.6 mph - N/A   Mostly Cloudy
4:51 AM 68.0 °F - 64.0 °F 87% 30.02 in 10.0 mi NNE 5.8 mph - N/A   Scattered Clouds
5:51 AM 66.9 °F - 64.0 °F 90% 30.02 in 10.0 mi NNE 5.8 mph - N/A   Clear
6:51 AM 66.0 °F - 64.0 °F 93% 30.04 in 10.0 mi North 3.5 mph - N/A   Clear
7:09 AM 66.0 °F - 63.0 °F 90% 30.08 in 10.0 mi North 8.1 mph - N/A   Scattered Clouds
7:18 AM 68.0 °F - 64.9 °F 90% 30.08 in 10.0 mi North 6.9 mph - N/A   Mostly Cloudy
7:51 AM 69.1 °F - 66.0 °F 90% 30.04 in 10.0 mi NNE 3.5 mph - N/A   Overcast
8:09 AM 70.0 °F - 66.9 °F 90% 30.09 in 10.0 mi NE 3.5 mph - N/A   Overcast
8:43 AM 73.9 °F - 68.0 °F 82% 30.10 in 10.0 mi NE 5.8 mph - N/A   Scattered Clouds
8:51 AM 75.0 °F - 68.0 °F 79% 30.06 in 10.0 mi NE 5.8 mph - N/A   Partly Cloudy
9:51 AM 79.0 °F - 69.1 °F 72% 30.07 in 10.0 mi ESE 8.1 mph - N/A   Partly Cloudy
10:51 AM 82.9 °F 85.4 °F 66.9 °F 58% 30.07 in 10.0 mi East 6.9 mph - N/A   Partly Cloudy
11:51 AM 87.1 °F 88.3 °F 64.0 °F 46% 30.05 in 10.0 mi East 11.5 mph - N/A   Partly Cloudy
12:51 PM 88.0 °F 87.9 °F 61.0 °F 40% 30.03 in 10.0 mi SE 8.1 mph - N/A   Scattered Clouds
1:51 PM 91.0 °F 90.2 °F 59.0 °F 34% 30.01 in 10.0 mi Variable 5.8 mph - N/A   Clear
2:51 PM 93.0 °F 92.7 °F 60.1 °F 33% 29.97 in 10.0 mi ESE 9.2 mph - N/A   Partly Cloudy
3:51 PM 91.0 °F 90.2 °F 59.0 °F 34% 29.94 in 10.0 mi Variable 4.6 mph - N/A   Clear
4:51 PM 91.0 °F 90.2 °F 59.0 °F 34% 29.94 in 10.0 mi Calm Calm - N/A   Clear
5:51 PM 91.0 °F 90.0 °F 57.9 °F 33% 29.94 in 10.0 mi ESE 5.8 mph - N/A   Clear
6:51 PM 89.1 °F 88.8 °F 60.1 °F 38% 29.93 in 10.0 mi East 9.2 mph - N/A   Partly Cloudy
7:51 PM 84.9 °F 84.8 °F 60.1 °F 43% 29.95 in 10.0 mi ESE 5.8 mph - N/A   Clear
8:51 PM 82.9 °F 83.3 °F 61.0 °F 47% 29.96 in 10.0 mi ESE 5.8 mph - N/A   Clear
9:51 PM 82.0 °F 83.8 °F 64.9 °F 56% 29.98 in 10.0 mi SE 12.7 mph - N/A   Scattered Clouds
10:51 PM 80.1 °F 82.3 °F 66.9 °F 64% 29.99 in 10.0 mi SSE 11.5 mph - N/A   Clear
11:51 PM 78.1 °F - 69.1 °F 74% 29.99 in 10.0 mi SSE 9.2 mph - N/A   Partly Cloudy